CAPE
0 30 50 0 0 0 0 0 0 0 0 0 0 0 0 0 0 0 0 0 0 4 45 228 516 857 586 541 304 87 18 7 9 13 17 14 10 28 13 14 44 46 19 20 14 25 34 44 39
0 146 0 1 0 0 0 0 0 0 0 0 0 0 0 0 0 0 0 0 15 36 72 185 363 593 567 298 104 38 26 20 14 14 30 9 12 14 8 22 25 39 42 28 26 22 45 66 84
0 0 2 0 0 0 0 0 0 0 0 0 0 0 0 0 0 0 0 5 44 26 22 41 279 438 328 90 43 9 23 26 17 35 31 10 9 8 20 22 6 73 36 41 13 31 68 53 87
0 0 0 0 0 0 0 0 0 0 0 0 0 0 0 0 0 0 0 62 23 11 0 15 125 224 162 120 71 78 20 18 33 66 20 5 14 16 16 14 15 21 22 32 21 54 62 82 85
0 0 0 0 0 0 0 0 0 0 0 3 0 0 0 0 0 0 10 42 20 4 4 0 2 9 48 183 197 251 150 121 142 58 25 13 12 20 25 20 32 29 39 21 45 52 79 85 77
5 0 0 0 0 0 0 0 0 0 0 0 0 0 0 0 0 0 0 16 17 6 0 0 0 1 2 33 128 185 229 308 218 34 11 11 7 10 10 19 28 34 50 65 66 81 93 78 46
0 0 0 0 0 0 0 0 0 0 0 18 0 0 0 0 0 0 2 23 20 1 0 0 0 0 0 0 8 26 104 63 39 20 28 22 20 33 35 50 32 44 61 73 79 91 74 28 22
0 0 0 0 0 0 0 0 0 0 0 0 0 0 0 0 0 1 1 7 0 2 0 1 0 0 0 0 0 6 4 6 9 10 8 0 0 10 18 22 53 66 86 90 83 39 17 17 3
0 0 0 0 0 0 0 0 0 0 0 9 2 0 0 0 0 0 4 7 1 1 0 0 0 0 0 0 0 0 0 0 0 0 0 0 0 0 0 3 27 62 117 97 26 8 3 1 0
2 0 0 0 0 0 0 0 0 0 3 9 17 0 0 0 1 0 1 2 1 0 0 0 2 0 0 0 0 0 0 0 0 0 0 0 0 0 0 0 1 16 77 63 9 3 0 0 0
31 0 0 0 0 0 0 0 0 0 8 4 46 0 0 2 1 0 0 0 2 0 0 0 1 0 0 0 0 0 0 0 0 0 0 0 0 0 0 0 0 0 2 2 0 0 0 0 0
78 14 0 0 0 0 0 0 0 0 0 0 0 0 1 1 0 0 0 0 2 0 0 0 1 0 0 0 0 0 0 0 0 0 0 0 0 0 0 0 0 0 0 0 0 0 0 0 0
32 25 8 2 0 0 0 0 0 0 0 0 0 0 0 0 0 0 0 0 0 0 0 1 0 0 0 0 0 0 0 0 0 0 0 0 0 0 0 0 0 0 0 0 0 0 0 0 0
0 0 1 9 0 1 0 0 0 0 0 1 0 0 0 6 0 1 0 0 2 1 1 2 0 0 0 0 0 0 0 0 0 0 0 0 0 0 0 0 0 0 0 0 0 0 0 0 0
0 0 0 0 1 0 0 0 0 0 0 29 3 0 0 5 13 20 17 1 3 3 3 1 0 0 0 0 0 0 0 0 0 0 0 0 0 0 0 0 0 0 0 0 0 0 0 0 0
0 0 1 0 3 5 17 0 0 0 0 0 18 2 0 0 10 19 35 2 1 1 0 0 0 0 0 0 0 0 0 0 0 0 0 0 0 0 0 0 0 0 0 0 0 0 0 0 0
0 0 10 6 2 41 9 0 0 0 0 0 0 21 0 0 0 0 11 0 0 0 0 0 0 0 0 0 0 0 0 0 0 0 0 0 0 0 0 0 0 0 0 0 0 0 0 0 0
0 0 0 0 0 46 26 0 0 0 0 0 0 18 16 0 0 0 3 1 0 0 0 0 0 0 0 0 0 0 0 0 0 0 0 0 0 0 0 0 0 0 0 0 0 0 0 0 0
0 0 0 0 0 0 4 39 1 0 0 0 0 1 3 0 34 0 0 2 0 0 0 0 0 0 0 0 0 0 0 0 0 0 0 0 0 0 0 0 0 0 0 0 0 0 0 0 0
0 0 0 0 0 0 1 1 10 18 0 0 0 2 12 31 7 0 0 0 0 0 0 0 0 0 0 0 0 0 0 0 0 0 0 0 0 0 0 0 0 0 0 0 0 0 0 0 0
0 0 0 0 0 0 0 0 7 0 0 0 0 0 11 12 0 0 0 0 0 0 0 0 0 0 0 0 0 0 0 0 0 1 0 0 0 0 0 0 0 0 0 0 0 0 0 0 0
0 0 0 0 0 0 4 5 2 12 0 0 0 0 0 0 0 0 0 0 0 0 0 0 0 0 0 0 0 0 0 0 0 0 0 0 0 0 0 0 0 0 0 0 0 0 0 0 0
0 0 0 0 0 11 0 1 0 3 0 0 0 0 0 0 0 0 0 0 0 0 0 0 0 0 0 0 0 0 0 0 0 0 0 0 0 0 0 0 0 0 0 0 0 0 0 0 0
0 0 0 4 20 20 0 0 0 0 0 0 0 0 0 0 0 0 0 0 0 0 0 0 0 0 0 0 0 0 0 0 0 0 0 0 0 0 0 0 0 0 0 0 0 0 0 0 0
1 3 12 11 2 0 0 0 0 0 0 0 0 0 0 0 0 0 0 0 0 0 0 0 0 0 0 0 0 0 0 0 0 0 0 0 0 0 0 0 0 0 0 0 0 0 0 0 0
8 5 5 1 0 0 0 32 1 0 0 0 0 0 0 0 0 0 0 0 0 0 0 0 0 0 0 0 0 0 0 0 0 0 0 0 0 0 0 0 0 0 0 0 0 0 0 0 0
2 26 0 0 65 4 30 54 3 0 0 0 0 0 0 0 0 0 0 0 0 2 0 0 0 0 0 0 0 0 0 0 0 0 0 0 0 0 0 0 0 0 0 0 0 0 0 0 0
45 0 4 13 0 13 0 1 0 0 0 0 0 0 0 0 0 0 0 0 0 0 0 0 0 0 0 0 0 0 0 0 0 0 0 0 0 0 0 0 0 0 0 0 0 0 0 0 0
3 1 26 0 0 5 0 0 0 0 0 0 0 0 0 0 0 0 0 1 0 0 0 0 0 0 0 0 0 0 0 0 0 0 0 0 0 0 0 0 0 0 0 0 0 0 0 0 0
7 2 1 0 1 0 0 0 0 0 0 0 0 0 0 0 0 0 0 0 0 0 0 0 0 0 0 0 0 0 0 0 0 0 0 0 0 0 0 0 0 0 0 0 0 0 0 0 0
CIN
-0 -339 -284 -12 -0 -0 -0 -0 -0 -0 -0 -0 -0 -0 -0 -0 -0 -0 -0 -0 -0 -186 -141 -32 -1 -0 -0 -0 -0 -8 -0 -0 -0 -0 -0 -0 -0 -1 -1 -0 -3 -0 -0 -0 -0 -0 -0 -1 -2
-0 -168 -0 -31 -0 -0 -0 -0 -0 -0 -0 -0 -0 -0 -0 -0 -0 -0 -0 -0 -253 -154 -121 -44 -20 -0 -0 -0 -6 -44 -0 -0 -0 -0 -0 -0 -0 -0 -0 -0 -1 -1 -4 -0 -1 -0 -0 -0 -1
-0 -0 -11 -0 -0 -0 -0 -0 -0 -0 -0 -0 -0 -0 -0 -0 -0 -0 -0 -235 -173 -185 -161 -107 -9 -0 -0 -13 -39 -0 -0 -0 -0 -0 -0 -0 -0 -0 -1 -0 -0 -2 -4 -1 -0 -0 -0 -0 -1
-0 -0 -0 -0 -0 -0 -0 -0 -0 -0 -0 -0 -0 -0 -0 -0 -0 -0 -0 -193 -229 -267 -2 -127 -15 -0 -4 -8 -30 -34 -13 -0 -0 -150 -1 -0 -0 -0 -0 -0 -0 -2 -0 -1 -0 -0 -0 -2 -2
-0 -0 -0 -0 -0 -0 -0 -0 -0 -33 -0 -257 -0 -0 -0 -0 -0 -0 -368 -235 -243 -274 -186 -0 -1 -20 -39 -1 -5 -4 -27 -53 -55 -15 -1 -0 -0 -0 -0 -0 -1 -0 -0 -0 -0 -0 -0 -2 -1
-27 -0 -0 -0 -0 -0 -0 -0 -0 -0 -0 -0 -0 -0 -0 -0 -0 -0 -0 -292 -226 -241 -0 -0 -0 -0 -0 -114 -16 -8 -13 -10 -38 -3 -0 -0 -0 -0 -0 -0 -0 -0 -0 -1 -0 -0 -1 -1 -8
-0 -0 -0 -0 -0 -0 -0 -0 -0 -0 -0 -192 -0 -0 -0 -0 -0 -0 -3 -278 -253 -0 -0 -0 -0 -0 -0 -0 -2 -110 -61 -111 -25 -0 -0 -0 -1 -0 -0 -0 -0 -0 -6 -0 -0 -1 -1 -14 -27
-0 -0 -0 -0 -0 -0 -0 -0 -0 -0 -0 -0 -0 -0 -0 -0 -0 -0 -1 -0 -0 -0 -0 -0 -0 -0 -0 -0 -0 -9 -8 -15 -8 -5 -6 -0 -0 -3 -5 -6 -3 -6 -7 -0 -3 -8 -16 -28 -63
-0 -0 -0 -0 -0 -0 -0 -0 -0 -0 -0 -299 -240 -0 -0 -0 -0 -0 -0 -0 -0 -0 -0 -0 -0 -0 -0 -0 -0 -0 -0 -0 -0 -0 -0 -0 -0 -0 -0 -13 -19 -11 -1 -0 -12 -32 -0 -0 -0
-25 -0 -0 -0 -0 -0 -0 -0 -0 -0 -105 -140 -323 -0 -0 -0 -0 -0 -0 -0 -0 -0 -1 -1 -0 -0 -0 -0 -0 -0 -0 -0 -0 -0 -0 -0 -0 -0 -0 -0 -22 -47 -8 -2 -26 -0 -0 -0 -0
-10 -0 -0 -0 -0 -0 -0 -0 -0 -0 -174 -69 -254 -0 -0 -0 -0 -0 -0 -0 -1 -0 -1 -0 -0 -0 -0 -0 -0 -0 -0 -0 -0 -0 -0 -0 -0 -0 -0 -0 -0 -0 -5 -28 -0 -0 -0 -0 -0
-2 -9 -0 -0 -0 -0 -0 -0 -0 -0 -0 -0 -0 -0 -0 -0 -0 -0 -0 -0 -6 -0 -1 -0 -0 -0 -0 -0 -0 -0 -0 -0 -0 -0 -0 -0 -0 -0 -0 -0 -0 -0 -0 -0 -0 -0 -0 -0 -0
-2 -6 -13 -22 -0 -0 -0 -0 -0 -0 -0 -0 -0 -0 -0 -0 -0 -0 -0 -0 -0 -0 -0 -0 -0 -0 -0 -0 -0 -0 -0 -0 -0 -0 -0 -0 -0 -0 -0 -0 -0 -0 -0 -0 -0 -0 -0 -0 -0
-0 -0 -65 -35 -3 -41 -0 -0 -0 -0 -0 -244 -0 -0 -103 -478 -0 -0 -0 -0 -0 -0 -0 -0 -0 -0 -0 -0 -0 -0 -0 -0 -0 -0 -0 -0 -0 -0 -0 -0 -0 -0 -0 -0 -0 -0 -0 -0 -0
-0 -0 -0 -3 -29 -0 -0 -0 -0 -0 -100 -283 -239 -0 -0 -340 -332 -386 -316 -0 -0 -1 -0 -0 -0 -0 -0 -0 -0 -0 -0 -0 -0 -0 -0 -0 -0 -0 -0 -0 -0 -0 -0 -0 -0 -0 -0 -0 -0
-0 -0 -0 -0 -26 -8 -12 -0 -0 -0 -0 -0 -253 -38 -0 -0 -349 -298 -270 -15 -0 -1 -0 -0 -0 -0 -0 -0 -0 -0 -0 -0 -0 -0 -0 -0 -0 -0 -0 -0 -0 -0 -0 -0 -0 -0 -0 -0 -0
-0 -0 -2 -10 -11 -4 -9 -0 -0 -0 -0 -0 -0 -269 -56 -0 -0 -0 -316 -20 -0 -0 -0 -0 -0 -0 -0 -0 -0 -0 -0 -0 -0 -0 -0 -0 -0 -0 -0 -0 -0 -0 -0 -0 -0 -0 -0 -0 -0
-0 -0 -0 -0 -0 -7 -3 -0 -0 -0 -0 -0 -0 -303 -259 -0 -0 -0 -257 -307 -0 -0 -0 -0 -0 -0 -0 -0 -0 -0 -0 -0 -0 -0 -0 -0 -0 -0 -0 -0 -0 -0 -0 -0 -0 -0 -0 -0 -0
-0 -0 -0 -0 -0 -0 -0 -0 -26 -0 -0 -0 -0 -288 -280 -0 -341 -0 -0 -290 -0 -0 -0 -0 -0 -0 -0 -0 -0 -0 -0 -0 -0 -0 -0 -0 -0 -0 -0 -0 -0 -0 -0 -0 -0 -0 -0 -0 -0
-0 -0 -0 -0 -0 -0 -0 -0 -9 -14 -0 -0 -0 -256 -306 -332 -291 -0 -0 -0 -0 -0 -0 -0 -0 -0 -0 -0 -0 -0 -0 -0 -0 -0 -0 -0 -0 -0 -0 -0 -0 -0 -0 -0 -0 -0 -0 -0 -0
-0 -0 -0 -0 -0 -0 -0 -0 -14 -20 -0 -0 -0 -0 -269 -340 -185 -0 -0 -0 -0 -0 -0 -0 -0 -0 -0 -0 -0 -0 -0 -0 -0 -0 -0 -0 -0 -0 -0 -0 -0 -0 -0 -0 -0 -0 -0 -0 -0
-0 -0 -0 -0 -0 -0 -3 -1 -3 -11 -0 -0 -0 -0 -0 -0 -0 -0 -0 -0 -0 -0 -0 -0 -0 -0 -0 -0 -0 -0 -0 -0 -0 -0 -0 -0 -0 -0 -0 -0 -0 -0 -0 -0 -0 -0 -0 -0 -0
-0 -0 -0 -0 -0 -2 -0 -0 -0 -20 -0 -0 -0 -0 -0 -0 -0 -0 -0 -0 -0 -0 -0 -0 -0 -0 -0 -0 -0 -0 -0 -0 -0 -0 -0 -0 -0 -0 -0 -0 -0 -0 -0 -0 -0 -0 -0 -0 -0
-0 -0 -6 -0 -3 -0 -0 -0 -0 -0 -0 -0 -0 -0 -0 -0 -0 -0 -0 -0 -0 -0 -0 -0 -0 -0 -0 -0 -0 -0 -0 -0 -0 -0 -0 -0 -0 -0 -0 -0 -0 -0 -0 -0 -0 -0 -0 -0 -0
-3 -0 -0 -0 -8 -0 -0 -2 -0 -0 -0 -0 -0 -0 -0 -0 -0 -0 -0 -0 -0 -0 -0 -0 -0 -0 -0 -0 -0 -0 -0 -0 -0 -0 -0 -0 -0 -0 -0 -0 -0 -0 -0 -0 -0 -0 -0 -0 -0
-0 -4 -13 -0 -0 -0 -0 -0 -0 -0 -0 -0 -0 -0 -0 -0 -0 -0 -0 -0 -0 -0 -0 -0 -0 -0 -0 -0 -0 -0 -0 -0 -0 -0 -0 -0 -0 -0 -0 -0 -0 -0 -0 -0 -0 -0 -0 -0 -0
-1 -0 -0 -0 -34 -0 -8 -1 -25 -0 -0 -0 -0 -0 -0 -0 -0 -0 -0 -0 -17 -553 -0 -0 -0 -0 -0 -0 -0 -0 -0 -0 -0 -0 -0 -0 -0 -0 -0 -0 -0 -0 -0 -0 -0 -0 -0 -0 -0
-21 -0 -0 -1 -0 -0 -0 -0 -0 -0 -0 -0 -0 -0 -0 -0 -0 -0 -0 -0 -0 -209 -0 -0 -0 -0 -0 -0 -0 -0 -0 -0 -0 -0 -0 -0 -0 -0 -0 -0 -0 -0 -0 -0 -0 -0 -0 -0 -0
-0 -0 -3 -2 -0 -0 -0 -0 -0 -0 -0 -0 -0 -0 -0 -0 -0 -0 -0 -164 -0 -0 -0 -0 -0 -0 -0 -0 -0 -0 -0 -0 -0 -0 -0 -0 -0 -0 -0 -0 -0 -0 -0 -0 -0 -0 -0 -0 -0
-4 -0 -0 -0 -7 -0 -0 -0 -0 -0 -0 -0 -0 -0 -0 -0 -0 -0 -0 -0 -0 -0 -0 -0 -0 -0 -0 -0 -0 -0 -0 -0 -0 -0 -0 -0 -0 -0 -0 -0 -0 -0 -0 -0 -0 -0 -0 -0 -0
Wind_Speed
6 5 2 4 4 4 3 5 2 2 2 1 4 5 8 2 5 5 1 3 8 10 7 9 16 17 18 18 17 17 15 16 16 16 15 14 14 13 12 12 10 13 14 13 13 14 13 12 11
3 3 3 2 4 2 5 4 5 4 4 7 6 3 2 2 2 5 7 5 9 9 10 9 15 18 18 17 17 15 14 14 15 15 15 14 12 13 12 11 11 10 14 13 12 13 12 13 16
1 2 1 4 3 6 5 5 6 1 7 2 4 4 3 3 2 9 4 9 11 9 9 12 16 17 17 17 16 15 14 14 15 14 15 14 12 12 12 10 10 13 16 13 12 12 13 13 16
3 4 3 4 6 5 6 3 2 6 2 3 3 5 2 4 8 6 11 13 11 9 9 12 16 16 17 16 16 15 15 15 14 13 14 12 11 11 11 10 10 12 13 12 12 12 12 16 18
4 3 1 2 5 4 5 3 6 6 4 4 4 4 2 2 7 12 14 14 13 10 9 11 14 15 16 15 16 15 14 14 14 15 13 12 11 10 11 10 11 12 12 11 11 12 13 17 18
2 3 1 4 4 5 4 5 4 5 4 5 5 7 4 2 10 12 16 13 12 13 9 9 11 12 13 13 13 13 12 12 15 14 12 11 11 10 11 10 10 10 9 9 12 13 16 19 18
4 3 5 4 5 4 6 3 5 6 6 6 9 7 0 3 6 14 13 11 10 11 9 8 7 9 10 10 9 11 11 11 13 12 11 10 9 10 10 9 8 8 7 12 12 17 18 17 18
4 3 4 5 5 6 4 4 1 6 5 3 7 7 5 6 11 15 14 10 12 9 7 9 7 7 6 6 9 10 11 12 12 10 10 9 9 9 8 7 5 6 9 16 17 17 17 18 18
4 1 5 6 6 4 2 2 2 2 6 1 6 6 4 18 13 16 13 10 11 10 11 9 8 6 6 6 6 9 10 10 10 8 8 7 4 5 5 3 5 5 12 18 17 18 18 18 18
5 4 7 4 3 4 1 1 0 1 3 2 3 5 16 19 17 20 18 16 14 16 15 11 10 8 7 6 5 5 6 4 5 5 6 4 5 4 3 4 8 8 15 18 17 16 16 11 5
5 6 3 3 5 2 2 3 2 5 3 6 8 13 18 20 16 16 18 19 16 16 13 15 13 8 8 6 4 2 3 3 3 6 5 4 3 3 2 2 3 4 9 7 8 6 5 6 6
7 5 5 4 3 3 3 2 3 5 5 1 6 17 18 19 19 19 19 18 20 17 17 16 14 9 6 5 5 4 4 3 3 4 5 4 3 3 3 2 3 4 3 6 5 4 7 8 8
8 12 8 11 6 6 2 6 5 7 7 3 9 18 22 20 18 14 14 14 18 18 17 16 15 13 8 8 5 5 4 4 4 4 5 4 4 4 4 3 3 4 5 6 6 5 6 7 9
4 10 13 13 13 6 5 4 5 8 3 5 12 17 18 21 21 15 17 18 18 16 16 15 16 14 10 8 8 6 4 5 4 4 4 5 4 4 4 4 4 4 4 4 5 5 5 6 8
6 10 14 14 17 9 3 16 15 8 4 9 8 9 13 14 16 21 20 20 21 16 16 16 15 15 11 9 8 6 6 5 5 4 6 6 5 5 6 5 4 4 4 7 6 6 8 7 7
5 6 9 5 11 7 9 33 12 12 8 9 9 8 10 14 17 14 15 18 18 15 17 14 14 14 12 9 8 6 5 5 5 4 4 6 6 6 5 6 5 6 6 6 5 4 7 7 6
5 12 13 8 12 11 18 25 10 7 9 10 9 10 12 11 10 13 13 15 16 16 16 15 14 15 13 9 7 6 7 5 5 4 4 6 6 7 6 5 5 7 6 5 6 3 6 7 6
6 8 9 10 3 14 23 22 9 8 9 9 8 10 10 11 18 14 15 15 15 14 16 15 13 14 13 8 6 4 4 4 4 5 5 7 5 7 6 5 7 7 6 5 4 7 4 6 6
5 7 9 14 4 5 18 22 13 14 5 7 8 9 11 14 12 10 13 14 14 13 15 15 15 14 12 8 9 7 9 6 4 5 7 7 6 7 7 6 8 7 8 8 8 6 10 4 5
11 13 19 12 8 9 16 18 19 16 17 9 10 10 13 13 9 13 14 16 16 16 16 16 16 15 13 10 9 4 6 3 3 4 6 7 7 8 8 9 8 9 6 8 10 10 6 3 7
16 16 16 15 11 10 8 20 16 22 23 16 16 11 12 14 15 12 14 19 15 18 19 18 17 16 15 13 7 3 4 3 2 3 4 5 7 8 8 8 8 9 8 9 10 9 7 5 6
18 19 16 12 4 13 6 11 16 19 21 24 21 13 13 13 14 14 16 16 21 22 17 18 18 17 15 15 12 15 10 9 6 8 5 6 7 7 7 8 8 9 7 9 10 9 5 6 7
19 10 13 9 16 6 23 9 7 17 20 23 25 22 16 16 16 17 17 20 19 18 18 16 16 17 17 16 16 13 12 9 3 3 8 8 6 7 7 8 8 8 7 7 10 11 9 6 6
2 12 8 8 5 11 25 9 8 11 24 19 18 22 20 15 16 16 19 19 16 16 16 17 19 19 18 18 19 19 18 9 7 8 8 8 5 6 7 7 7 7 8 9 9 10 11 9 5
14 7 2 4 8 13 9 13 24 10 6 16 21 22 21 18 18 17 18 17 17 19 20 17 19 20 19 20 20 19 18 15 14 12 10 10 7 5 9 8 7 6 7 7 6 8 8 8 7
17 12 5 8 5 14 12 11 9 18 10 5 3 11 15 16 16 18 20 19 19 21 22 21 21 20 20 21 21 18 18 12 10 12 10 10 10 10 9 9 8 8 8 7 7 5 5 7 7
7 11 18 7 2 5 10 10 1 8 8 8 7 6 7 12 14 18 18 17 18 19 21 23 21 20 20 21 17 17 15 16 12 12 11 9 9 7 9 11 10 9 8 9 8 6 7 5 6
6 10 8 9 2 11 4 5 2 10 11 8 8 9 7 6 7 11 14 15 16 18 20 20 22 23 21 19 16 15 15 15 11 10 12 10 8 9 10 11 11 10 9 9 9 6 6 7 4
10 7 6 5 8 6 4 2 4 7 8 8 6 9 9 10 7 6 8 11 14 12 13 16 17 18 17 16 16 16 14 14 12 11 11 12 10 11 12 12 12 12 12 10 10 8 7 6 6
4 10 13 5 6 8 4 3 5 7 6 5 4 7 6 6 6 5 5 1 3 8 11 13 14 14 15 14 14 16 13 13 14 12 13 12 14 13 14 12 12 13 13 13 12 12 11 13 11
Wind_Direction
322 312 309 41 55 69 248 248 221 248 198 262 103 150 177 105 165 200 14 180 132 141 153 153 160 145 142 132 130 127 133 131 127 124 115 109 105 101 91 85 75 87 82 80 85 81 68 62 61
338 308 12 86 107 129 256 250 219 222 136 143 93 66 76 135 85 121 121 172 129 129 124 125 135 135 130 130 126 132 138 136 132 130 123 112 107 103 96 83 82 85 89 84 83 81 67 60 85
357 26 86 128 153 192 209 213 223 123 152 110 100 56 135 185 53 157 152 146 130 119 122 123 127 129 131 131 133 140 138 140 136 132 120 113 111 103 96 85 87 79 78 82 85 78 66 73 82
61 357 15 121 208 248 202 216 197 124 220 74 108 84 23 271 151 177 144 139 125 119 120 121 130 136 138 141 144 145 146 148 146 132 115 119 113 105 98 96 82 76 90 86 83 76 74 84 79
38 73 262 219 224 242 233 261 169 171 160 145 146 161 25 21 109 134 144 144 138 127 129 131 141 144 145 149 153 157 157 152 145 126 122 119 115 109 104 96 93 93 90 90 85 78 84 82 76
63 106 138 215 227 232 254 198 199 189 156 152 98 120 180 99 129 148 151 152 140 139 132 137 136 140 147 152 145 140 133 134 128 117 127 128 123 119 109 106 103 101 99 98 91 85 86 81 78
145 119 202 221 233 255 214 154 194 188 167 204 140 128 130 202 169 154 150 137 138 139 136 133 135 143 144 146 147 140 130 123 114 127 136 119 117 112 110 110 115 112 111 82 89 90 84 84 75
117 127 212 215 207 263 236 163 293 168 202 80 149 176 198 198 156 154 149 138 146 141 138 141 136 137 136 139 132 128 126 121 126 132 117 117 119 110 111 100 97 113 104 98 94 94 89 81 74
131 236 220 208 187 252 310 166 55 355 127 234 173 144 152 136 142 153 150 157 154 157 160 151 142 141 139 141 144 129 129 129 128 123 126 115 113 110 103 122 104 103 102 103 101 97 94 83 73
178 194 226 220 218 231 244 257 77 360 131 178 120 44 127 142 159 165 171 172 166 171 172 166 161 156 147 148 144 134 129 130 131 134 134 128 124 121 124 79 55 47 105 108 104 102 92 80 70
199 229 200 277 258 266 234 266 289 124 244 209 202 150 150 154 167 175 178 181 175 172 176 176 173 159 153 144 141 134 132 135 142 150 149 142 124 116 103 78 74 77 89 104 96 86 81 84 79
256 224 207 234 258 234 227 276 255 174 209 28 197 157 155 169 177 179 180 180 178 177 181 179 177 161 154 146 153 153 151 148 157 167 161 146 137 138 125 101 104 110 100 100 95 97 99 84 85
270 281 249 250 241 237 231 242 253 253 237 252 144 161 172 183 183 179 175 175 182 183 181 181 179 175 163 162 154 157 166 163 173 170 180 156 161 163 141 138 112 109 114 113 108 104 99 99 88
352 309 287 261 247 240 206 248 168 255 220 113 164 179 181 182 185 178 184 181 183 180 181 178 183 180 167 170 168 173 167 175 174 176 184 180 168 162 148 143 122 115 111 109 115 113 99 95 94
288 296 291 254 240 238 136 270 219 237 238 143 191 192 189 188 189 192 188 189 182 183 181 181 179 178 174 174 173 174 182 172 181 188 186 178 172 166 154 136 131 128 116 116 113 114 105 93 89
240 234 256 236 228 236 165 253 235 222 188 214 186 190 191 195 199 192 193 192 189 182 181 176 179 174 176 181 179 178 183 174 187 186 176 183 174 159 144 141 142 136 131 132 128 123 105 100 99
254 265 241 319 211 222 206 253 239 212 190 219 186 195 204 193 195 198 188 188 190 178 177 181 178 176 178 174 179 183 183 183 189 177 177 187 175 163 150 144 144 143 142 139 142 109 112 113 107
232 250 257 232 314 224 233 248 241 213 189 220 214 187 205 202 210 188 185 184 183 183 182 179 176 176 176 174 172 175 174 190 179 189 184 181 170 159 147 143 146 147 145 140 121 128 94 127 126
289 291 278 257 226 15 262 254 226 242 224 227 216 194 197 211 208 181 187 185 179 186 183 183 176 178 174 181 182 193 201 197 195 191 182 180 169 158 156 153 148 156 163 160 143 117 121 86 125
242 254 268 285 289 266 266 272 251 226 236 207 218 212 198 217 178 191 185 188 187 185 189 187 186 178 186 186 190 184 179 181 187 179 183 181 170 163 164 160 165 167 154 154 158 152 139 116 186
224 233 246 250 303 282 259 275 270 235 229 215 218 213 208 200 189 192 185 194 187 195 193 190 188 184 187 188 163 91 87 70 133 184 189 187 172 169 169 171 164 167 168 174 172 165 156 143 201
236 217 232 238 268 249 71 287 232 227 231 227 222 206 201 198 196 195 196 193 198 203 191 194 190 185 189 180 178 191 195 191 201 191 183 175 177 176 176 173 169 171 175 178 180 174 165 138 174
236 207 221 214 234 277 267 280 240 205 222 223 225 220 211 197 192 194 199 203 205 196 197 192 191 189 190 188 188 192 202 203 147 144 168 178 180 181 182 176 175 175 178 182 176 176 171 168 158
112 249 231 232 197 241 242 222 283 218 224 222 220 219 219 202 195 197 201 207 204 199 194 191 192 193 190 192 194 196 201 183 165 174 183 188 188 185 187 181 178 174 183 182 190 186 182 184 154
201 221 205 211 205 233 216 218 234 249 247 206 217 217 212 208 198 197 199 201 201 194 195 195 194 197 193 196 199 198 201 192 188 183 188 179 178 187 197 176 177 182 190 189 167 177 184 173 179
193 179 219 192 205 244 211 257 250 231 244 192 230 212 213 214 206 209 204 200 197 197 194 195 197 197 196 197 201 199 201 200 196 190 190 194 196 197 177 183 179 180 183 177 175 189 189 173 180
181 200 221 316 279 281 177 207 157 17 17 10 4 324 258 217 204 209 209 204 194 196 196 197 198 202 199 200 198 201 199 204 194 190 191 194 188 179 171 181 185 183 177 177 170 185 177 185 183
159 164 169 211 210 240 84 113 304 345 334 338 343 310 284 308 257 219 211 203 199 198 197 196 198 200 198 196 198 200 197 201 189 179 190 187 174 168 175 185 187 182 179 175 172 160 166 179 170
186 220 221 148 244 312 122 45 346 302 308 308 326 306 352 338 308 261 225 207 199 195 195 200 198 201 200 197 195 195 193 192 184 187 189 187 178 182 187 187 187 187 182 173 174 167 148 174 166
179 189 196 173 207 197 226 13 356 335 337 316 338 4 11 1 356 2 18 357 211 187 176 189 195 201 203 202 198 198 190 181 187 191 193 187 193 188 189 188 191 191 187 174 175 176 172 180 188